VA3WWD-2 Weather Reports


Display with metric or nautical units.
time (UTC)temp
F
wind
direction
speed
MPH
gust
MPH
rain 1hr
in
rain 24hr
in
rain mn
in
humidity
%
barometer
mb
20260503220030 44 180 0.0 0.0 0.00 0.00 0.00 73
20260503215532 44 180 0.0 0.0 0.00 0.00 0.00 73
20260503215031 45 180 0.0 0.0 0.00 0.00 0.00 73
20260503214533 44 180 0.0 0.0 0.00 0.00 0.00 72
20260503214035 43 180 0.0 0.0 0.00 0.00 0.00 73
20260503213534 44 180 0.0 0.0 0.00 0.00 0.00 73
20260503213036 45 180 0.0 0.0 0.00 0.00 0.00 73
20260503212037 45 180 0.0 0.0 0.00 0.00 0.00 73
20260503211539 45 180 0.0 0.0 0.00 0.00 0.00 73
20260503211041 45 180 0.0 0.0 0.00 0.00 0.00 73
20260503210540 44 180 0.0 0.0 0.00 0.00 0.00 73
20260503205544 44 180 0.0 0.0 0.00 0.00 0.00 73
20260503205043 45 180 0.0 0.0 0.00 0.00 0.00 73
20260503204545 43 180 0.0 0.0 0.00 0.00 0.00 72
20260503203550 43 180 0.0 0.0 0.00 0.00 0.00 72
20260503203048 43 180 0.0 0.0 0.00 0.00 0.00 72
20260503202047 43 180 0.0 0.0 0.00 0.00 0.00 72
20260503201549 43 180 0.0 0.0 0.00 0.00 0.00 71
20260503194555 46 180 0.0 0.0 0.00 0.00 0.00 57
20260503194057 48 180 0.0 0.0 0.00 0.00 0.00 53
20260503193058 50 180 0.0 0.0 0.00 0.00 0.00 46
20260503192600 50 180 0.0 0.0 0.00 0.00 0.00 41
20260503192059 51 180 0.0 0.0 0.00 0.00 0.00 41
20260503191601 50 180 0.0 0.0 0.00 0.00 0.00 40
20260503191103 51 180 0.0 0.0 0.00 0.00 0.00 40
20260503190602 50 180 0.0 0.0 0.00 0.00 0.00 39
20260503190104 49 180 0.0 0.0 0.00 0.00 0.00 42
20260503185606 50 180 0.0 0.0 0.00 0.00 0.00 41
20260503185105 51 180 0.0 0.0 0.00 0.00 0.00 36
20260503184607 51 180 0.0 0.0 0.00 0.00 0.00 32
20260503184109 54 180 0.0 0.0 0.00 0.00 0.00 28
20260503183608 54 180 0.0 0.0 0.00 0.00 0.00 26
20260503183110 55 180 0.0 0.0 0.00 0.00 0.00 24
20260503182612 54 180 0.0 0.0 0.00 0.00 0.00 25
20260503182111 55 180 0.0 0.0 0.00 0.00 0.00 26
20260503181613 53 180 0.0 0.0 0.00 0.00 0.00 24
20260503181115 54 180 0.0 0.0 0.00 0.00 0.00 26
20260503180614 53 180 0.0 0.0 0.00 0.00 0.00 30
20260503175618 52 180 0.0 0.0 0.00 0.00 0.00 30
20260503175117 52 180 0.0 0.0 0.00 0.00 0.00 30
20260503174619 52 180 0.0 0.0 0.00 0.00 0.00 30
20260503174121 54 180 0.0 0.0 0.00 0.00 0.00 30
20260503173620 53 180 0.0 0.0 0.00 0.00 0.00 28
20260503173122 53 180 0.0 0.0 0.00 0.00 0.00 28
20260503172123 55 180 0.0 0.0 0.00 0.00 0.00 28
20260503171625 53 180 0.0 0.0 0.00 0.00 0.00 31
20260503171127 55 180 0.0 0.0 0.00 0.00 0.00 27
20260503170128 55 180 0.0 0.0 0.00 0.00 0.00 25
20260503160139 50 180 0.0 0.0 0.00 0.00 0.00 26
20260503150649 47 180 0.0 0.0 0.00 0.00 0.00 30
20260503150151 47 180 0.0 0.0 0.00 0.00 0.00 26
20260503130713 40 180 0.0 0.0 0.00 0.00 0.00 54
20260503110737 28 180 0.0 0.0 0.00 0.00 0.00 68
20260503110239 29 180 0.0 0.0 0.00 0.00 0.00 67
20260503100252 28 180 0.0 0.0 0.00 0.00 0.00 65
20260503090304 30 180 0.0 0.0 0.00 0.00 0.00 63
20260503080814 28 180 0.0 0.0 0.00 0.00 0.00 61
20260503080316 29 180 0.0 0.0 0.00 0.00 0.00 61
20260503072323 28 180 0.0 0.0 0.00 0.00 0.00 60
20260503071327 30 180 0.0 0.0 0.00 0.00 0.00 59
20260503070826 29 180 0.0 0.0 0.00 0.00 0.00 59
20260503070328 29 180 0.0 0.0 0.00 0.00 0.00 59
20260503053844 29 180 0.0 0.0 0.00 0.00 0.00 55
20260503052848 27 180 0.0 0.0 0.00 0.00 0.00 54
20260503052347 29 180 0.0 0.0 0.00 0.00 0.00 53
20260503051849 28 180 0.0 0.0 0.00 0.00 0.00 53
20260503051351 28 180 0.0 0.0 0.00 0.00 0.00 53
20260503050350 29 180 0.0 0.0 0.00 0.00 0.00 53
20260503045852 29 180 0.0 0.0 0.00 0.00 0.00 53
20260503045352 30 180 0.0 0.0 0.00 0.00 0.00 53
20260503044853 29 180 0.0 0.0 0.00 0.00 0.00 53
20260503044355 30 180 0.0 0.0 0.00 0.00 0.00 52
20260503043855 30 180 0.0 0.0 0.00 0.00 0.00 51
20260503041900 30 180 0.0 0.0 0.00 0.00 0.00 51
20260503040901 31 180 0.0 0.0 0.00 0.00 0.00 50
20260503040403 31 180 0.0 0.0 0.00 0.00 0.00 50
20260503035905 32 180 0.0 0.0 0.00 0.00 0.00 49
20260503035404 31 180 0.0 0.0 0.00 0.00 0.00 48
20260503034906 31 180 0.0 0.0 0.00 0.00 0.00 48
20260503033907 33 180 0.0 0.0 0.00 0.00 0.00 47
20260503032911 32 180 0.0 0.0 0.00 0.00 0.00 47
20260503031912 31 180 0.0 0.0 0.00 0.00 0.00 47
20260503030913 32 180 0.0 0.0 0.00 0.00 0.00 46
20260503030415 32 180 0.0 0.0 0.00 0.00 0.00 46
20260503025917 33 180 0.0 0.0 0.00 0.00 0.00 46
20260503024918 33 180 0.0 0.0 0.00 0.00 0.00 45
20260503024420 32 180 0.0 0.0 0.00 0.00 0.00 45
20260503023919 34 180 0.0 0.0 0.00 0.00 0.00 44
20260503023421 34 180 0.0 0.0 0.00 0.00 0.00 43
20260503022422 33 180 0.0 0.0 0.00 0.00 0.00 43
20260503021924 34 180 0.0 0.0 0.00 0.00 0.00 43
20260503021426 34 180 0.0 0.0 0.00 0.00 0.00 42
20260503020925 33 180 0.0 0.0 0.00 0.00 0.00 41
20260503020427 33 180 0.0 0.0 0.00 0.00 0.00 41
20260503015428 33 180 0.0 0.0 0.00 0.00 0.00 41
20260503014930 34 180 0.0 0.0 0.00 0.00 0.00 41
20260503014432 34 180 0.0 0.0 0.00 0.00 0.00 41
20260503013931 35 180 0.0 0.0 0.00 0.00 0.00 40
20260503013433 34 180 0.0 0.0 0.00 0.00 0.00 40
20260503012935 34 180 0.0 0.0 0.00 0.00 0.00 40
20260503012434 34 180 0.0 0.0 0.00 0.00 0.00 39
20260503011936 35 180 0.0 0.0 0.00 0.00 0.00 40
20260503011438 35 180 0.0 0.0 0.00 0.00 0.00 40
20260503010937 34 180 0.0 0.0 0.00 0.00 0.00 40
20260503010439 35 180 0.0 0.0 0.00 0.00 0.00 39
20260503005440 36 180 0.0 0.0 0.00 0.00 0.00 40
20260503004943 35 180 0.0 0.0 0.00 0.00 0.00 40
20260503004445 36 180 0.0 0.0 0.00 0.00 0.00 39
20260503003944 35 180 0.0 0.0 0.00 0.00 0.00 38
20260503003446 37 180 0.0 0.0 0.00 0.00 0.00 38
20260503002948 37 180 0.0 0.0 0.00 0.00 0.00 36
20260503002447 37 180 0.0 0.0 0.00 0.00 0.00 35
20260503001949 39 180 0.0 0.0 0.00 0.00 0.00 33
20260503001451 39 180 0.0 0.0 0.00 0.00 0.00 31
20260503000950 39 180 0.0 0.0 0.00 0.00 0.00 29
20260503000452 40 180 0.0 0.0 0.00 0.00 0.00 27
20260502235954 39 180 0.0 0.0 0.00 0.00 0.00 27
20260502235453 40 180 0.0 0.0 0.00 0.00 0.00 27
20260502234955 40 180 0.0 0.0 0.00 0.00 0.00 26
20260502234457 41 180 0.0 0.0 0.00 0.00 0.00 25
20260502233956 41 180 0.0 0.0 0.00 0.00 0.00 22
20260502233458 41 180 0.0 0.0 0.00 0.00 0.00 22
20260502233000 42 180 0.0 0.0 0.00 0.00 0.00 21
20260502232459 40 180 0.0 0.0 0.00 0.00 0.00 23
20260502232001 41 180 0.0 0.0 0.00 0.00 0.00 22
20260502231503 41 180 0.0 0.0 0.00 0.00 0.00 22
20260502231002 41 180 0.0 0.0 0.00 0.00 0.00 20
20260502230504 41 180 0.0 0.0 0.00 0.00 0.00 21
20260502230006 42 180 0.0 0.0 0.00 0.00 0.00 23
20260502225505 41 180 0.0 0.0 0.00 0.00 0.00 22
20260502225007 42 180 0.0 0.0 0.00 0.00 0.00 25
20260502224509 43 180 0.0 0.0 0.00 0.00 0.00 25
20260502223510 43 180 0.0 0.0 0.00 0.00 0.00 32
20260502223012 42 180 0.0 0.0 0.00 0.00 0.00 29
20260502222511 42 180 0.0 0.0 0.00 0.00 0.00 30
20260502222013 40 180 0.0 0.0 0.00 0.00 0.00 33
20260502221515 39 180 0.0 0.0 0.00 0.00 0.00 35
20260502221014 39 180 0.0 0.0 0.00 0.00 0.00 37